Location: Wild Duck Observatory
(38.2456°N, 85.2898°W)
Time: 04:41:04
(UTC-05:00)

OTV 5 (USA 277) - Visible Passes

Search period start: 25 February 2018 00:00
Search period end: 07 March 2018 00:00
Orbit: 404 x 417 km, 43.0° (Epoch: 07 September)

Date Brightness Start Highest point End Pass type
(mag) Time Alt. Az. Time Alt. Az. Time Alt. Az.
25 Feb ? 05:58:49 35° NW 05:59:33 41° NNW 06:02:43 10° ENE visible
26 Feb ? 05:10:07 24° NE 05:10:07 24° NE 05:11:39 10° ENE visible
26 Feb ? 06:43:04 10° WNW 06:46:06 34° N 06:49:09 10° ENE visible
27 Feb ? 05:54:08 29° NW 05:54:56 34° N 05:57:58 10° ENE visible
28 Feb ? 05:05:22 22° NE 05:05:22 22° NE 05:06:51 10° ENE visible
28 Feb ? 06:38:19 10° WNW 06:41:28 41° N 06:44:38 10° E visible
01 Mar ? 05:49:23 29° NNW 05:50:19 36° N 05:53:24 10° ENE visible
02 Mar ? 05:00:41 22° NE 05:00:41 22° NE 05:02:12 10° ENE visible
02 Mar ? 06:33:29 10° WNW 06:36:46 70° NNE 06:40:02 10° ESE visible
03 Mar ? 05:44:46 38° NW 05:45:40 52° NNE 05:48:52 10° E visible
04 Mar ? 04:56:09 23° ENE 04:56:09 23° ENE 04:57:41 10° E visible
04 Mar ? 06:28:55 11° WNW 06:31:55 53° SSW 06:35:07 10° SE visible
05 Mar ? 05:40:23 61° W 05:40:53 82° SSW 05:44:09 10° ESE visible
06 Mar ? 04:51:57 20° ESE 04:51:57 20° ESE 04:53:05 10° ESE visible
06 Mar ? 06:24:44 12° W 06:26:54 22° SW 06:29:30 10° SSE visible
